Weather History for Rhinelander, WI

Change the Weather History Date:

Saturday, July 20, 2013

  Actual Average Record
Temperature  
Mean Temperature 65 °F 67 °F  
Max Temperature 73 °F 79 °F 95 °F (1932)
Min Temperature 56 °F 55 °F 40 °F (1913)
Degree Days  
Heating Degree Days 0 2  
Month to date heating degree days 10 40  
Since 1 June heating degree days 184 174  
Since 1 July heating degree days 10 40  
Cooling Degree Days 0 4  
Month to date cooling degree days 128 70  
Year to date cooling degree days 182 135  
Since 1 June cooling degree days 168 123  
Growing Degree Days 14 (Base 50)    
Moisture  
Dew Point 48 °F    
Average Humidity 61    
Maximum Humidity 93    
Minimum Humidity 29    
Precipitation  
Precipitation 0.00 in 0.14 in 2.45 in (2001)
Month to date precipitation 1.61 2.69  
Year to date precipitation 20.24 16.26  
Snow  
Snow 0.00 in - 0.00 in ()
Month to date snowfall 0.0  
Since 1 June snowfall 0.0  
Since 1 July snowfall 0.0  
Snow Depth 0.00 in    
Sea Level Pressure  
Sea Level Pressure 29.95 in    
Wind  
Wind Speed 5 mph (North)    
Max Wind Speed 9 mph    
Max Gust Speed 14 mph    
Visibility 10 miles    
Events      
T = Trace of Precipitation, MM = Missing Value Source: NWS Daily Summary

Daily Weather History Graph

Daily Weather History Graph

Search for Another Location

Airport:

Trip Planner

Search our weather history database for the weather conditions in past years. The results will help you decide how hot, cold, wet, or windy it might be!

Date:

Astronomy

Jul. 20, 2013 Rise Set
Actual Time 5:28 AM CDT 8:39 PM CDT
Civil Twilight 4:52 AM CDT 9:15 PM CDT
Nautical Twilight 4:06 AM CDT 10:01 PM CDT
Astronomical Twilight 3:08 AM CDT 10:58 PM CDT
Moon 6:42 PM CDT (7/20) 3:08 AM CDT (7/20)
Length of Visible Light 16h 22m
Length of Day
15h 11m
Waxing Gibbous, 94% of the Moon is Illuminated
Jul 20
Waxing Gibbous
Jul 22
Full
Jul 29
Last Quarter
Aug 6
New
Aug 14
First Quarter

Hourly Weather History & Observations

Time (CDT) Temp. Dew Point Humidity Pressure Visibility Wind Dir Wind Speed Gust Speed Precip Events Conditions
12:53 AM 61.0 °F 55.9 °F 83% 29.85 in 10.0 mi West 5.8 mph - N/A   Mostly Cloudy
1:53 AM 63.0 °F 55.9 °F 78% 29.84 in 10.0 mi West 6.9 mph - N/A   Partly Cloudy
2:53 AM 60.1 °F 55.0 °F 83% 29.85 in 10.0 mi WNW 4.6 mph - N/A   Clear
3:53 AM 61.0 °F 55.9 °F 83% 29.84 in 10.0 mi WNW 5.8 mph - N/A   Clear
4:53 AM 57.9 °F 55.0 °F 90% 29.86 in 10.0 mi WNW 4.6 mph - N/A   Clear
5:53 AM 57.9 °F 55.0 °F 90% 29.88 in 10.0 mi NNW 4.6 mph - N/A   Clear
6:53 AM 60.1 °F 54.0 °F 80% 29.90 in 10.0 mi NE 3.5 mph - N/A   Clear
7:53 AM 61.0 °F 53.1 °F 75% 29.92 in 10.0 mi ENE 6.9 mph - N/A   Clear
8:53 AM 63.0 °F 50.0 °F 63% 29.94 in 10.0 mi NNE 8.1 mph - N/A   Partly Cloudy
9:53 AM 66.0 °F 48.9 °F 54% 29.97 in 10.0 mi Variable 4.6 mph - N/A   Scattered Clouds
10:53 AM 66.0 °F 48.0 °F 52% 29.98 in 10.0 mi Variable 3.5 mph - N/A   Mostly Cloudy
11:53 AM 66.9 °F 46.9 °F 49% 29.98 in 10.0 mi NNW 4.6 mph - N/A   Overcast
12:53 PM 68.0 °F 46.0 °F 45% 29.98 in 10.0 mi Variable 4.6 mph - N/A   Mostly Cloudy
1:53 PM 69.1 °F 46.9 °F 45% 29.98 in 10.0 mi Variable 4.6 mph - N/A   Overcast
2:53 PM 72.0 °F 37.9 °F 29% 29.97 in 10.0 mi Variable 5.8 mph - N/A   Clear
3:53 PM 72.0 °F 42.1 °F 34% 29.97 in 10.0 mi Variable 6.9 mph - N/A   Clear
4:53 PM 72.0 °F 43.0 °F 35% 29.97 in 10.0 mi Variable 4.6 mph - N/A   Clear
5:53 PM 70.0 °F 41.0 °F 35% 29.96 in 10.0 mi Variable 3.5 mph - N/A   Clear
6:53 PM 69.1 °F 44.1 °F 40% 29.96 in 10.0 mi North 3.5 mph - N/A   Clear
7:53 PM 66.0 °F 46.0 °F 48% 29.98 in 10.0 mi Calm Calm - N/A   Clear
8:53 PM 61.0 °F 46.0 °F 58% 30.00 in 10.0 mi NNE 3.5 mph - N/A   Clear
9:53 PM 57.9 °F 46.0 °F 65% 30.03 in 10.0 mi NNE 3.5 mph - N/A   Clear
10:53 PM 57.0 °F 45.0 °F 64% 30.04 in 10.0 mi NE 4.6 mph - N/A   Overcast
11:53 PM 57.0 °F 46.0 °F 67% 30.04 in 10.0 mi NE 6.9 mph - N/A   Overcast